Погода в Молодёжном

Россия / Томская область     56°40′18″N   85°19′14″E
темп.,
°C
ветер,
м/с
пор.,
м/с
влажн.,
%
обл.,
%
осадки,
мм/ч
давл.,
гПа
погр.,
м
26 февраля, пт
пт2601:00−22юз41093100 0.1 1019748
04:00−23юз31096100 0.0 1020586
07:00−23юз4995100 0.1 1021776
10:00−22юз5992100 0.1 1022964
13:00−21юз5887100 0.2 10241194
16:00−22зюз5885100 0.1 10261289
19:00−25з3994100 0.3 1029555
22:00−27зюз31096100 0.0 1032490
27 февраля, сб
сб2701:00−28юз4995100 0.1 1033475
04:00−28юз4896100 0.1 1033476
07:00−27юз4995100 0.2 1034511
10:00−27юз4895100 0.1 1035513
13:00−24юз4792100 0.2 1035618
16:00−23юз4791100 0.1 1035691
19:00−25юз2797100 0.1 1036243
22:00−27юз2799100 0.0 1037164
28 февраля, вс
вс2801:00−29юз25100100 0.1 1038102
04:00−31ююз2310094 0.0 103948
07:00−32ююз239983 0.0 104040
10:00−28ююз25970 0.0 1039185
13:00−22ю249017 0.0 1038328
16:00−18ю248713 0.0 1036501
19:00−21юв239644 0.0 103527
22:00−22вюв369659 0.0 1033109
1 марта, пн
пн101:00−20вюв379778 0.0 1030168
04:00−17вюв4994100 0.0 1026267
07:00−14вюв41094100 0.5 1023407
10:00−12вюв4993100 0.3 1019380
13:00−8вюв5993100 0.7 1015544
16:00−5юв4795100 1.0 1012552
19:00−5вюв3896100 2.4 1010507
22:00−5ююз1498100 1.6 1009189
2 марта, вт
вт201:00−5зюз3896100 2.1 1009323
04:00−5юз1198100 0.5 100730
07:00−4з0198100 2.0 100724
10:00−3зюз129799 0.5 1006145
13:00−1зюз479699 0.7 1007767
16:00−2зюз5891100 0.4 1007921
19:00−5з3796100 0.7 1007263
22:00−9з229699 0.1 100835